Flag for Canada Weather past 2 weeks in Iqaluit, Nunavut Territory, Canada

Now
5 °F

Clear.


Feels Like: -6 °F
Forecast: 16 / 25 °F
Wind: 6 mph from North

Location: Iqaluit

Current Time: Oct 20, 2014 at 12:35:39 AM

Latest Report: Oct 19, 2014 at 11:00 PM


Visibility: 15 mi

Pressure: 30.11 "Hg

Humidity: 78%

Dew point: 0 °F

Location of IqaluitLocation

Historic Weather in Iqaluit — Graph

°F

Iqaluit temperature yesterday

Maximum temperature yesterday: 14 °F (at 2:00 PM)
Minimum temperature yesterday: 5 °F (at 7:00 AM)
Average temperature yesterday: 8 °F

Past Weeks' High & Low Weather Summary

 TemperatureHumidityPressure
High37 °F (Oct 5, 7:00 PM)100% (Oct 10, 12:00 PM)30.14 "Hg (Oct 10, 12:00 PM)
Low5 °F (Oct 19, 7:00 AM)59% (Oct 11, 11:00 AM)29.12 "Hg (Oct 10, 12:00 PM)
Average29 °F81%29.83 "Hg
* Reported Oct 4 11:00 PM — Oct 19 11:00 PM, Iqaluit, Weather by CustomWeather, © 2014

Note: Actual official high and low records may vary slightly from our data, if they occured in-between our weather recording intervals... More about our weather records

Advertising

Iqaluit weather history for previous 24 hours

 ConditionsComfort  
Time TempWeatherWind HumidityBarometerVisibility
11:00 PM
Oct 19
5 °FClear.6 mph78%30.11 "Hg15 mi
10:00 PM5 °FClear.7 mph78%30.12 "Hg15 mi
9:00 PM5 °FClear.6 mph78%30.12 "Hg15 mi
8:00 PM5 °FClear.5 mph78%30.12 "Hg15 mi
7:00 PM7 °FClear.10 mph78%30.13 "Hg15 mi
6:00 PM7 °FClear.10 mph78%30.12 "Hg15 mi
5:00 PM9 °FPassing clouds.10 mph78%30.11 "Hg30 mi
4:00 PM12 °FSunny.10 mph73%30.11 "Hg30 mi
3:00 PM12 °FPassing clouds.9 mph73%30.11 "Hg30 mi
2:00 PM14 °FSunny.12 mph73%30.11 "Hg30 mi
1:00 PM12 °FSunny.14 mph73%30.11 "Hg30 mi
12:00 PM10 °FSunny.10 mph79%30.12 "Hg30 mi
11:00 AM10 °FSunny.10 mph79%30.12 "Hg30 mi
10:00 AM9 °FSunny.13 mph78%30.12 "Hg30 mi
9:00 AM9 °FSunny.12 mph72%30.13 "Hg30 mi
8:00 AM7 °FPassing clouds.14 mph78%30.13 "Hg30 mi
7:00 AM5 °FPassing clouds.12 mph78%30.13 "Hg30 mi
6:00 AM7 °FClear.12 mph78%30.12 "Hg15 mi
5:00 AM9 °FClear.10 mph72%30.13 "Hg15 mi
4:00 AM7 °FClear.12 mph78%30.13 "Hg15 mi
3:00 AM7 °FClear.14 mph78%30.11 "Hg15 mi
2:00 AM7 °FClear.12 mph78%30.11 "Hg15 mi
1:00 AM9 °FClear.14 mph78%30.11 "Hg15 mi
12:00 AM9 °FClear.13 mph78%30.11 "Hg15 mi
Weather by CustomWeather, © 2014

See weather overviewHow to use our weather pages